EW1979 Weather Reports


time (UTC)temp
F
wind
direction
speed
knots
gust
knots
rain 1hr
in
rain 24hr
in
rain mn
in
humidity
%
barometer
mb
20260906040105 82 148 3.5 0.0 0.00 0.00 0.00 58 1009.3
20260906033103 83 126 3.5 0.0 0.00 0.00 0.00 53 1008.9
20260906030003 83 175 1.7 0.0 0.00 0.00 0.00 54 1008.4
20260906024504 83 152 0.9 0.0 0.00 0.00 0.00 55 1008.2
20260906023106 82 106 0.0 0.0 0.00 0.00 0.00 57 1008.1
20260906021506 82 106 0.0 0.0 0.00 0.00 0.00 56 1007.8
20260906020106 83 106 0.0 0.0 0.00 0.00 0.00 55 1007.5
20260906014604 83 103 0.0 0.0 0.00 0.00 0.00 55 1007.4
20260906013104 83 127 0.9 0.0 0.00 0.00 0.00 55 1007.5
20260906010035 85 142 0.0 0.0 0.00 0.00 0.00 52 1007.2
20260906004504 87 122 0.9 0.0 0.00 0.00 0.00 51 1007.3
20260906003105 88 111 1.7 0.0 0.00 0.00 0.00 50 1007.2
20260906001609 89 111 1.7 0.0 0.00 0.00 0.00 49 1006.9
20260906000007 90 116 1.7 0.0 0.00 0.00 0.00 48 1006.8
20260905234503 90 114 1.7 0.0 0.00 0.00 0.00 47 1006.8
20260905233103 91 130 1.7 0.0 0.00 0.00 0.00 47 1006.9
20260905230123 89 118 1.7 0.0 0.00 0.00 0.00 49 1006.8
20260905224506 89 126 2.6 0.0 0.00 0.00 0.00 50 1006.9
20260905223016 91 88 2.6 0.0 0.00 0.00 0.00 47 1006.6
20260905221608 90 83 1.7 0.0 0.00 0.00 0.00 46 1006.9
20260905220007 91 168 2.6 0.0 0.00 0.00 0.00 45 1006.7
20260905214508 92 103 1.7 0.0 0.00 0.00 0.00 47 1006.6
20260905213105 93 70 1.7 0.0 0.00 0.00 0.00 45 1006.7
20260905210104 91 144 3.5 0.0 0.00 0.00 0.00 48 1007.3
20260905204612 90 155 2.6 0.0 0.00 0.00 0.00 47 1007.5
20260905203104 91 63 2.6 0.0 0.00 0.00 0.00 47 1007.6
20260905201609 91 78 2.6 0.0 0.00 0.00 0.00 48 1007.7
20260905200003 92 172 3.5 0.0 0.00 0.00 0.00 47 1007.7
20260905194602 92 71 1.7 0.0 0.00 0.00 0.00 48 1008.3
20260905193015 90 60 1.7 0.0 0.00 0.00 0.00 52 1008.6
20260905191501 91 183 3.5 0.0 0.00 0.00 0.00 51 1008.8
20260905190004 90 72 4.3 0.0 0.00 0.00 0.00 53 1009.0
20260905184503 89 172 2.6 0.0 0.00 0.00 0.00 52 1009.3
20260905183003 90 161 4.3 0.0 0.00 0.00 0.00 54 1009.6
20260905181507 88 162 2.6 0.0 0.00 0.00 0.00 56 1009.9
20260905180004 88 222 3.5 0.0 0.00 0.00 0.00 56 1010.2
20260905174502 87 221 3.5 0.0 0.00 0.00 0.00 59 1010.3
20260905173003 88 142 4.3 0.0 0.00 0.00 0.00 59 1010.4
20260905171605 85 177 4.3 0.0 0.00 0.00 0.00 63 1010.6
20260905170109 84 189 3.5 0.0 0.00 0.00 0.00 66 1010.8
20260905164606 84 181 3.5 0.0 0.00 0.00 0.00 66 1010.8
20260905163104 85 225 3.5 0.0 0.00 0.00 0.00 65 1010.8
20260905160004 83 156 4.3 0.0 0.00 0.00 0.00 67 1010.8
20260905154504 83 163 5.2 0.0 0.00 0.00 0.00 72 1010.6
20260905153105 81 222 4.3 0.0 0.00 0.00 0.00 76 1010.8
20260905151506 79 212 3.5 0.0 0.00 0.00 0.00 79 1011.0
20260905144506 78 157 4.3 0.0 0.00 0.00 0.00 81 1010.7
20260905143003 78 210 5.2 0.0 0.00 0.00 0.00 83 1010.8
20260905140006 77 162 5.2 0.0 0.00 0.00 0.00 86 1010.6
20260905134504 75 153 4.3 0.0 0.00 0.00 0.00 89 1010.8
20260905133002 75 161 2.6 0.0 0.00 0.00 0.00 90 1010.7
20260905131504 74 168 2.6 0.0 0.00 0.00 0.00 91 1010.6
20260905130104 74 200 2.6 0.0 0.00 0.00 0.00 92 1010.5
20260905124510 73 167 2.6 0.0 0.00 0.00 0.00 92 1010.3
20260905123110 73 140 2.6 0.0 0.00 0.00 0.00 93 1010.2
20260905121510 73 151 2.6 0.0 0.00 0.00 0.00 92 1010.1
20260905120103 73 136 2.6 0.0 0.00 0.00 0.00 92 1010.2
20260905113007 73 145 2.6 0.0 0.00 0.00 0.00 92 1009.7
20260905111607 73 154 2.6 0.0 0.00 0.00 0.00 92 1009.6
20260905110105 73 193 2.6 0.0 0.00 0.00 0.00 92 1009.4
20260905104506 74 159 2.6 0.0 0.00 0.00 0.00 92 1009.2
20260905103103 74 165 2.6 0.0 0.00 0.00 0.00 92 1009.4
20260905101608 73 161 2.6 0.0 0.00 0.00 0.00 92 1009.4
20260905100117 74 171 1.7 0.0 0.00 0.00 0.00 91 1009.3
20260905093103 74 155 2.6 0.0 0.00 0.00 0.00 91 1009.3
20260905091603 74 160 2.6 0.0 0.00 0.00 0.00 91 1009.4
20260905084503 74 146 1.7 0.0 0.00 0.00 0.00 90 1009.3
20260905083007 74 138 2.6 0.0 0.00 0.00 0.00 89 1009.4
20260905081603 74 128 2.6 0.0 0.00 0.00 0.00 88 1009.4
20260905080104 74 169 2.6 0.0 0.00 0.00 0.00 88 1009.4
20260905074606 75 159 2.6 0.0 0.00 0.00 0.00 87 1009.6
20260905073012 75 163 3.5 0.0 0.00 0.00 0.00 86 1009.8
20260905071618 75 171 3.5 0.0 0.00 0.00 0.00 85 1009.8
20260905070105 75 173 3.5 0.0 0.00 0.00 0.00 83 1009.8
20260905064604 76 176 2.6 0.0 0.00 0.00 0.00 81 1009.8
20260905063105 76 167 1.7 0.0 0.00 0.00 0.00 78 1009.8
20260905061517 76 155 2.6 0.0 0.00 0.00 0.00 77 1009.9
20260905060004 76 175 2.6 0.0 0.00 0.00 0.00 75 1010.0
20260905054608 77 146 1.7 0.0 0.00 0.00 0.00 74 1009.9
20260905051509 77 150 3.5 0.0 0.00 0.00 0.00 72 1009.9
20260905050105 77 142 2.6 0.0 0.00 0.00 0.00 72 1009.9
20260905044503 78 150 2.6 0.0 0.00 0.00 0.00 72 1009.9
20260905043104 78 119 1.7 0.0 0.00 0.00 0.00 73 1009.9